Regional Weather Roundup
Issued by NWS Grand Forks, ND

Home | Current Version | Previous Version | Text Only | Print | Product List | Glossary Off
Versions: 1 2 3 4 5 6 7 8 9 10 11 12 13 14 15 16 17 18 19 20 21 22 23 24 25 26 27 28 29 30 31 32 33 34 35 36 37 38 39 40 41 42 43 44 45 46 47 48 49 50

915
ASUS43 KFGF 211010
RWRFGF
PRAIRIE TO PINES  WEATHER ROUNDUP
NATIONAL WEATHER SERVICE EASTERN NORTH DAKOTA/GRAND FORKS ND
400 AM CST SAT JAN 21 2017

 **SATELLITE DATA USED TO AUGMENT SKY COVER AT AUTOMATED STATIONS**
 *****  WEATHER ACROSS EASTERN NORTH DAKOTA  *****

CITY           SKY/WX    TMP DP  RH WIND       PRES   REMARKS
GRAND FORKS    CLOUDY    36  32  85 SE9       29.40F
GRAND FRKS AFB CLOUDY    34  34  99 SE9       29.39F
DEVILS LAKE    FOG      N/A N/A N/A SE10      29.35F VSB 3/4
FARGO          CLOUDY    38  35  89 SE12      29.39F
WAHPETON ARPT  CLOUDY    34  32  93 SE9       29.41S
$$

 ***** WEATHER ACROSS CENTRAL AND WESTERN NORTH DAKOTA  *****

CITY           SKY/WX    TMP DP  RH WIND       PRES   REMARKS
BISMARCK       CLOUDY    30  29  96 NW5       29.32S FOG
MINOT          CLOUDY    29  27  92 CALM      29.30F FOG
JAMESTOWN      FOG       33  33 100 SE12      29.31F VSB 1/4 WCI  24
MINOT AFB      FAIR      27  27 100 CALM      29.30S FOG
GARRISON         N/A     24  22  91 CALM      29.30S
WILLISTON      CLOUDY    25  22  88 CALM      29.30F
DICKINSON      CLOUDY    29  26  89 NW9       29.26F WCI  20
HETTINGER      MOCLDY    31  26  82 W17       29.30S WCI  19
$$

 *****  OTHER AIRPORT OBSERVATIONS IN OUR AREA  *****

CITY           SKY/WX    TMP DP  RH WIND       PRES   REMARKS
WALHALLA       NOT AVBL
GRAFTON AIRPOR CLOUDY    34  34 100 SE10      29.42F
VALLEY CITY AR FOG       32  32 100 SE8       29.37S VSB 1/4 WCI  25
CANDO          NOT AVBL
CAVALIER APRT  FOG       34  34 100 S8        29.40F VSB 1
GWINNER        CLOUDY    34  34 100 SE12      29.36S VSB 1/2
SHEYENNE NWR     N/A     33  33 100 SE8       29.95S
ROLLA            N/A    N/A N/A N/A MISG        N/A
 ***** THE ABOVE OBSERVATIONS ARE NON NWS ARE NOT QUALITY
       CONTROLLED AND MAY MIS-REPORT RAIN FOR SNOW...
$$

  *****  WEATHER ACROSS NORTHERN MINNESOTA  *****

CITY           SKY/WX    TMP DP  RH WIND       PRES   REMARKS
FLAG ISLAND    CLOUDY    34  32  93 SE5       29.47F FOG
WARROAD        CLOUDY    36  30  80 SE7       29.47F
ROSEAU         CLOUDY    36  30  80 SE9       29.45F FOG
HALLOCK        CLOUDY    37  36  93 SE10      29.42S
THF RVR FALLS  CLOUDY    34  33  96 SE14      29.43F WCI  25
BAUDETTE       CLOUDY    34  33  96 SE6       29.48F FOG
WASKISH        CLOUDY    34  34 100 E5        29.48S
CROOKSTON      CLOUDY    36  34  93 SE9       29.42F
GREENBUSH NDAW   N/A     34  34 100 SE6         N/A
$$
  *****  WEATHER ACROSS CENTRAL AND WEST MINNESOTA  *****

CITY           SKY/WX    TMP DP  RH WIND       PRES   REMARKS
FOSSTON        CLOUDY    34  32  93 SE7       29.43F
BEMIDJI        CLOUDY    33  33  99 SE7       29.46S
PARK RAPIDS    FOG       34  32  92 SE6       29.43F VSB 1/2
ELBOW LAKE     CLOUDY    33  33 100 SE10      29.41F FOG     WCI  25
WADENA         FOG       32  32 100 E5        29.43F VSB 1/2
DETROIT LAKES  CLOUDY    34  34 100 SE9       29.42F FOG
MOORHEAD       CLOUDY    34  34 100 SE7       29.41F
FERGUS FALLS   CLOUDY    36  36 100 SE13      29.44F
MORRIS MN      CLOUDY    34  34 100 E13       29.39F FOG     WCI  25
STAPLES        CLOUDY    34  34 100 CALM      29.44F FOG
$$
  *****  WEATHER ELSEWHERE ACROSS MINNESOTA  *****

CITY           SKY/WX    TMP DP  RH WIND       PRES   REMARKS
DULUTH         DRZL/FOG  34  34 100 E6        29.50F VSB 1/8
INTRNTL FALLS  FLURRIES  33  32  96 E7        29.50F
ELY            CLOUDY    34  34 100 E3        29.52F
CLOQUET        FOG       34  34 100 E5        29.50F VSB 1/4
WHEATON        CLOUDY    39  39 100 SE13      29.41F FOG
BRAINERD       FOG       33  33 100 VRB5      29.47F VSB 1/2
HIBBING        FOG       32  32 100 SE7       29.50F VSB 1
ALEXANDRIA     CLOUDY    33  33 100 SE9       29.43F FOG
SAINT CLOUD    FOG       34  34 100 E3        29.45F VSB 1/4
MINNEAPOLIS    CLOUDY    35  33  92 E8        29.46F FOG
$$

  *****  WEATHER ACROSS SOUTH DAKOTA  *****

CITY           SKY/WX    TMP DP  RH WIND       PRES   REMARKS
SIOUX FALLS    FOG       36  36 100 SE7       29.35S VSB 1/2
BROOKINGS      CLOUDY    35  34  96 SE12      29.33F FOG
WATERTOWN      FOG       34  34 100 SE6       29.33F VSB 1/2
HURON          CLOUDY    28  28 100 NW7       29.33S WCI  21
SISSETON         N/A     34  34 100 S9        29.37F
ABERDEEN       CLOUDY    31  28  89 NE3       29.33S FOG
MITCHELL       CLOUDY    37  36  96 W6        29.34S
PIERRE         CLOUDY    26  24  92 NW10      29.32R WCI  16
MOBRIDGE       CLOUDY    28  23  81 NW6       29.27F HAZE    WCI  22
RAPID CITY     CLOUDY    34  31  88 N12       29.34S
$$

  *****  SOME WEATHER IN NEARBY STATES *****

CITY           SKY/WX    TMP DP  RH WIND       PRES   REMARKS
GLASGOW MT     FAIR      20  18  92 W7        29.35R WCI  11
GREAT FALLS MT FAIR      21  16  81 W5        29.33R WCI  15
CHEYENNE WY    FAIR      22  17  81 W8        29.37F WCI  12
SCOTTSBLUFF NE FAIR      26  20  77 NW5       29.40F WCI  20
OMAHA NE       FOG       41  37  86 CALM      29.38F VSB 1/2
DES MOINES IA  FOG       43  42  97 S7        29.39F VSB 1/4
DAVENPORT IA   CLOUDY    46  45  96 S10       29.45F FOG
CHICAGO IL     CLOUDY    46  46 100 S5        29.53F FOG
EAU CLAIRE WI  FOG       34  34 100 E8        29.50F VSB 1
LA CROSSE WI   CLOUDY    40  36  86 N3        29.48F FOG
$$

  *****  SOME NATIONAL WEATHER *****

CITY           SKY/WX    TMP DP  RH WIND       PRES   REMARKS
LA GUARDIA NY  CLOUDY    46  41  82 W8        29.89F
RALEIGH NC     FOG       51  51 100 NE3       29.91F VSB 1/8
ATLANTA GA     FOG       63  63 100 S3        29.83F VSB 1/4
NEW ORLEANS LA CLOUDY    73  69  87 S21G35    29.65F
OKLAHOMA CITY  FAIR      41  34  76 N7        29.52F
ALBUQUERQUE NM LGT RAIN  38  37  97 S13       29.50F
SALT LAKE CITY FLURRIES  35  32  88 S7        29.27S
LOS ANGELES CA MOCLDY    53  44  71 W18G32    29.65R
BOISE ID       CLOUDY    35  32  88 SE10      29.31R
SEATTLE WA     CLOUDY    45  35  68 SE6       29.23R
$$

*** WEATHER ACROSS MANITOBA...SASKATCHEWAN AND ONTARIO ***
                ***ONTARIO***

CITY           SKY/WX    TMP DP  RH WIND       PRES   REMARKS
GERALDTON      FOG       32  32 100 NE6       29.63F VSB 1/8
THUNDER BAY    DRIZZLE   34  34 100 NE3       29.62F FOG
SIOUX LOOKOUT  CLOUDY    36  34  93 E5        29.55F FOG
TORONTO        FOG       37  36  93 SE6       29.76F VSB 3/4
BIG TROUT LK   CLOUDY    27  27 100 E6        29.70R WCI  20
PICKLE LAKE    NOT AVBL
DRYDEN         LGT RAIN  36  34  93 SE8       29.53F
KENORA         CLOUDY    32  32 100 SE8       29.49F FOG     WCI  25
$$
                *** MANITOBA***

CITY           SKY/WX    TMP DP  RH WIND       PRES   REMARKS
BRANDON        FOG       32  32 100 SE7       29.35F VSB 1
DAUPHIN        LGT SNOW  28  27  93 CALM      29.38F
ISLAND LAKE    FOG       32  32 100 E5        29.58S VSB 1/2
PILOT MOUND      N/A     32  32 100 SE13        N/A  WCI  22
THE PAS        MOCLDY    28  27  93 E6        29.42S FOG     WCI  22
THOMPSON       LGT SNOW  27  25  93 E3        29.57F FOG
WINNIPEG       DRIZZLE   34  34 100 SE10      29.44S FOG
LYNN LAKE      CLOUDY    27  27 100 E6        29.52S FOG     WCI  20
CHURCHILL      FLURRIES  19  18  93 SE18      29.81S WCI   4
GILLAM         FLURRIES  28  27  93 SE8       29.67S WCI  20
$$
                ***SASKATCHEWAN***

CITY           SKY/WX    TMP DP  RH WIND       PRES   REMARKS
ESTEVAN        FOG       14  12  92 SE2       29.29S VSB 1/8
KINDERSLEY     FOG       23  21  93 N8        29.34R VSB 1/4 WCI  14
LLOYDMINSTER   FOG       21  19  93 NW7       29.38S VSB 3/4 WCI  13
PRINCE ALBERT  CLOUDY    28  27  93 NE6       29.38R WCI  22
REGINA         CLOUDY    18  16  93 E3        29.28F
YORKTON        CLOUDY    25  25 100 S8        29.30F FOG     WCI  16
N. BATTLEFORD  MOCLDY    25 N/A N/A CALM      29.38R
LA RONGE       FOG       28  27  93 NE7       29.45R VSB 3/8 WCI  21
SASKATOON      CLOUDY    28  27  93 N8        29.35S WCI  20
SWIFT CURRENT  CLOUDY    25  23  93 NW10      29.29R WCI  15
$$
NOTE: THESE ARE AUTOMATED STATIONS WITH LIMITED QUALITY CONTROL
      "FAIR" INDICATES FEW OR NO CLOUDS BELOW 12,000 FEET WITH NO
      SIGNIFICANT WEATHER AND/OR OBSTRUCTIONS TO VISIBILITY.
      SKY/WX - SKY CONDITION AND SIGNIFICANT WEATHER.
      TMP - AIR TEMPERATURE.    DP   - DEWPOINT TEMPERATURE.
      RH  - RELATIVE HUMIDITY.  PRES - PRESSURE.
      HX  - HEAT INDEX.         WCI  - WIND CHILL INDEX.
$




USA.gov is the U.S. government's official web portal to all federal, state and local government web resources and services.